Location: Poughquag
(41.6090°N, 73.6820°W)
Time: 12:52:26
(UTC-04:00)

Tiros 1 despin weight - Pass Details

Date: 31 May 2020
Orbit: 593 x 642 km, 48.2° (Epoch: 07 July)

Event Time Altitude Azimuth Distance (km) Brightness Sun altitude
Rises 16:09:01 0° 297° (WNW) 2,882 ? 44.7°
Reaches altitude 10° 16:11:20 10° 299° (WNW) 1,966 ? 44.2°
Maximum altitude 16:15:52 83° 27° (NNE) 613 ? 43.4°
Drops below altitude 10° 16:20:18 10° 116° (ESE) 1,932 ? 42.6°
Sets 16:22:34 0° 117° (ESE) 2,826 ? 42.2°
